LAN273 SCTE-SCBA

Flight info

Callsign LAN273
Flight time 0h 47m
Altitude 33000
Route GUTIN3A GUTIN UT102 UDOVI UDOVI4C
Aircraft A320/M-SDE3FGHIRWY/LB1

Departure

Time 2026-05-04 16:12
Airport El Tepual International Airport (SCTE)

Arrival

Time 2026-05-04 16:59
Airport Balmaceda Airport (SCBA)
Time Latitude Longitude Altitude Speed Heading
2026-05-04 15:30 -41.43294 -73.09745 301 ft 0 kts 271°
2026-05-04 16:03 -41.43295 -73.09714 289 ft 4 kts 271°
2026-05-04 16:03 -41.43296 -73.09678 301 ft 4 kts 272°
2026-05-04 16:03 -41.43296 -73.09642 301 ft 4 kts 268°
2026-05-04 16:03 -41.43295 -73.09606 301 ft 4 kts 260°
2026-05-04 16:04 -41.43291 -73.09585 301 ft 0 kts 258°
2026-05-04 16:06 -41.43314 -73.09598 301 ft 7 kts 190°
2026-05-04 16:06 -41.43490 -73.09601 301 ft 15 kts 182°
2026-05-04 16:07 -41.43658 -73.09610 303 ft 21 kts 182°
2026-05-04 16:07 -41.43997 -73.09620 301 ft 11 kts 182°
2026-05-04 16:08 -41.44084 -73.09625 300 ft 17 kts 181°
2026-05-04 16:08 -41.44655 -73.09647 302 ft 30 kts 183°
2026-05-04 16:09 -41.44994 -73.09654 302 ft 14 kts 183°
2026-05-04 16:09 -41.45067 -73.09597 304 ft 4 kts 95°
2026-05-04 16:10 -41.45070 -73.09494 313 ft 6 kts 91°
2026-05-04 16:11 -41.44007 -73.09402 293 ft 130 kts
2026-05-04 16:11 -41.42990 -73.09369 565 ft 152 kts
2026-05-04 16:12 -41.40952 -73.06680 2560 ft 192 kts 103°
2026-05-04 16:12 -41.44517 -73.03837 3822 ft 235 kts 171°
2026-05-04 16:13 -41.47949 -73.02604 4636 ft 278 kts 170°
2026-05-04 16:13 -41.51785 -73.01087 6232 ft 294 kts 168°
2026-05-04 16:14 -41.55748 -72.99394 7924 ft 303 kts 167°
2026-05-04 16:14 -41.59855 -72.97612 9606 ft 313 kts 167°
2026-05-04 16:15 -41.66442 -72.96100 11095 ft 347 kts 181°
2026-05-04 16:16 -41.71410 -72.95485 12273 ft 364 kts 182°
2026-05-04 16:16 -41.79057 -72.94471 14413 ft 372 kts 183°
2026-05-04 16:17 -41.83361 -72.93905 15523 ft 376 kts 184°
2026-05-04 16:18 -41.91257 -72.92869 17525 ft 384 kts 185°
2026-05-04 16:18 -41.93920 -72.92516 18185 ft 386 kts 185°
2026-05-04 16:19 -42.02062 -72.91442 19760 ft 395 kts 186°
2026-05-04 16:19 -42.07578 -72.90719 20736 ft 404 kts 185°
2026-05-04 16:20 -42.16100 -72.88372 22133 ft 423 kts 180°
2026-05-04 16:20 -42.21908 -72.86696 23072 ft 431 kts 180°
2026-05-04 16:21 -42.30811 -72.84117 24340 ft 440 kts 180°
2026-05-04 16:22 -42.36820 -72.82370 25132 ft 444 kts 181°
2026-05-04 16:22 -42.45934 -72.79703 26476 ft 450 kts 181°
2026-05-04 16:23 -42.55161 -72.76896 27748 ft 456 kts 182°
2026-05-04 16:24 -42.67621 -72.73108 29249 ft 462 kts 183°
2026-05-04 16:25 -42.73932 -72.71198 29994 ft 466 kts 183°
2026-05-04 16:26 -42.86639 -72.67322 31300 ft 468 kts 183°
2026-05-04 16:26 -42.96134 -72.64391 32349 ft 465 kts 183°
2026-05-04 16:27 -43.02473 -72.62456 32867 ft 462 kts 184°
2026-05-04 16:28 -43.11801 -72.59596 32883 ft 457 kts 184°
2026-05-04 16:29 -43.33511 -72.52898 32868 ft 457 kts 182°
2026-05-04 16:31 -43.49023 -72.48098 32856 ft 457 kts 182°
2026-05-04 16:32 -43.67615 -72.42264 32844 ft 448 kts 186°
2026-05-04 16:33 -43.79703 -72.38462 32848 ft 446 kts 187°
2026-05-04 16:34 -43.88822 -72.35591 32834 ft 447 kts 186°
2026-05-04 16:35 -44.07087 -72.29794 32183 ft 455 kts 184°
2026-05-04 16:36 -44.10180 -72.28818 31928 ft 456 kts 184°
2026-05-04 16:36 -44.16361 -72.26839 31418 ft 455 kts 184°
2026-05-04 16:37 -44.22508 -72.24847 30926 ft 452 kts 183°
2026-05-04 16:37 -44.25565 -72.23853 30688 ft 451 kts 183°
2026-05-04 16:37 -44.31664 -72.21889 30211 ft 449 kts 183°
2026-05-04 16:38 -44.37738 -72.19940 29710 ft 446 kts 183°
2026-05-04 16:39 -44.46761 -72.17034 28871 ft 441 kts 182°
2026-05-04 16:39 -44.52726 -72.15104 28316 ft 438 kts 182°
2026-05-04 16:40 -44.58642 -72.13189 27774 ft 435 kts 181°
2026-05-04 16:40 -44.64513 -72.11278 27240 ft 431 kts 181°
2026-05-04 16:41 -44.70340 -72.09380 26729 ft 427 kts 181°
2026-05-04 16:41 -44.79015 -72.06554 25960 ft 423 kts 180°
2026-05-04 16:42 -44.87549 -72.03769 24383 ft 415 kts 180°
2026-05-04 16:43 -44.93137 -72.01928 23346 ft 411 kts 179°
2026-05-04 16:43 -44.98648 -72.00111 22297 ft 402 kts 178°
2026-05-04 16:43 -45.01360 -71.99219 21812 ft 398 kts 178°
2026-05-04 16:44 -45.11994 -71.95719 19916 ft 387 kts 176°
2026-05-04 16:45 -45.17201 -71.94004 18942 ft 382 kts 175°
2026-05-04 16:46 -45.24930 -71.91436 17507 ft 377 kts 174°
2026-05-04 16:46 -45.30002 -71.89878 16739 ft 365 kts 177°
2026-05-04 16:47 -45.34951 -71.88585 15861 ft 359 kts 178°
2026-05-04 16:47 -45.39834 -71.87335 15015 ft 354 kts 178°
2026-05-04 16:48 -45.47040 -71.85427 13785 ft 348 kts 177°
2026-05-04 16:48 -45.49405 -71.84785 13378 ft 345 kts 177°
2026-05-04 16:49 -45.54131 -71.83494 12480 ft 341 kts 177°
2026-05-04 16:49 -45.58772 -71.82231 11599 ft 337 kts 178°
2026-05-04 16:50 -45.63326 -71.80995 10808 ft 335 kts 178°
2026-05-04 16:50 -45.67103 -71.79961 10248 ft 327 kts 178°
2026-05-04 16:51 -45.71369 -71.78771 9758 ft 298 kts 178°
2026-05-04 16:51 -45.73389 -71.78211 9232 ft 294 kts 178°
2026-05-04 16:51 -45.77156 -71.75651 8165 ft 308 kts 144°
2026-05-04 16:52 -45.80197 -71.71313 7085 ft 300 kts 140°
2026-05-04 16:52 -45.81523 -71.69133 6949 ft 284 kts 127°
2026-05-04 16:53 -45.82747 -71.64048 6695 ft 257 kts 100°
2026-05-04 16:53 -45.83662 -71.56927 5917 ft 235 kts 100°
2026-05-04 16:54 -45.84047 -71.54672 5502 ft 232 kts 115°
2026-05-04 16:55 -45.88676 -71.50325 3924 ft 195 kts 191°
2026-05-04 16:55 -45.91111 -71.51580 3243 ft 181 kts 223°
2026-05-04 16:56 -45.92617 -71.54283 2998 ft 172 kts 252°
2026-05-04 16:56 -45.92777 -71.59222 2841 ft 164 kts 282°
2026-05-04 16:57 -45.92588 -71.60772 2663 ft 149 kts 282°
2026-05-04 16:57 -45.92263 -71.63458 2299 ft 130 kts 281°
2026-05-04 16:58 -45.91802 -71.67283 1864 ft 130 kts 282°
2026-05-04 16:58 -45.91654 -71.68454 1803 ft 103 kts 279°
2026-05-04 16:59 -45.91551 -71.69293 1804 ft 12 kts 279°
2026-05-04 17:00 -45.91409 -71.69238 1806 ft 5 kts 47°
2026-05-04 17:00 -45.91345 -71.69178 1804 ft 6 kts 31°
2026-05-04 17:01 -45.91292 -71.69143 1804 ft 3 kts 353°
2026-05-04 17:01 -45.91268 -71.69180 1807 ft 2 kts 305°
2026-05-04 17:02 -45.91266 -71.69183 1807 ft 0 kts 305°